Regional Weather Roundup
Issued by NWS

Home | Current Version | Previous Version | Graphics & Text | Print | Product List | Glossary On
Versions: 1 2 3 4 5 6 7 8 9 10 11 12 13 14 15 16 17 18 19 20 21 22 23 24 25 26 27 28 29 30 31 32 33 34 35 36 37 38 39 40 41 42 43 44 45 46 47 48 49 50
000
ASUS45 KBOI 221310
RWRID

IDAHO REGIONAL WEATHER ROUNDUP
NATIONAL WEATHER SERVICE BOISE ID
700 AM MDT FRI MAY 22 2015

NOTE: "FAIR" INDICATES FEW OR NO CLOUDS BELOW 12000 FEET
WITH NO SIGNIFICANT WEATHER AND/OR OBSTRUCTIONS TO VISIBILITY

IDZ012-014-221400-
SOUTHWEST IDAHO


CITY           SKY/WX    TMP DP  RH WIND       PRES   REMARKS
BOISE          PTCLDY    52  46  80 SE5       29.88R
CALDWELL       CLOUDY    48  39  71 CALM      29.89R
MOUNTAIN HOME  MOCLDY    49  43  79 S3        29.88R
$$

IDZ016-017-221400-
SOUTHCENTRAL IDAHO


CITY           SKY/WX    TMP DP  RH WIND       PRES   REMARKS
BURLEY         CLOUDY    50  46  86 E5        29.90R
JEROME         CLOUDY    52  45  77 E9        29.91S
TWIN FALLS     CLOUDY    51  45  79 SE6       29.89S
$$

IDZ019>023-221400-
SOUTHEAST IDAHO


CITY           SKY/WX    TMP DP  RH WIND       PRES   REMARKS
IDAHO FALLS    LGT RAIN  49  46  90 NE8       29.94S
POCATELLO      MOCLDY    49  48  97 CALM      29.92S
REXBURG        CLOUDY    47  44  90 NE3       29.95R
$$

IDZ006-010-011-018-031-032-221400-
CENTRAL IDAHO MOUNTAINS


CITY           SKY/WX    TMP DP  RH WIND       PRES   REMARKS
MCCALL         CLOUDY    39  38  96 CALM      29.93S FOG
HAILEY         MOCLDY    45  43  93 NW7       29.97S
STANLEY          N/A     41  38  89 CALM      30.01S
SALMON         MOCLDY    45  43  93 CALM      29.95R
CHALLIS        PTCLDY    44  40  85 CALM      29.97R
$$

IDZ002-004-006-007-026-221400-
NORTHERN IDAHO


CITY           SKY/WX    TMP DP  RH WIND       PRES   REMARKS
LEWISTON       CLEAR     58  52  80 CALM      29.85R
LOWELL           N/A     50  47  89 CALM      29.93R
COEUR D`ALENE  PTCLDY    54  46  76 CALM      29.86S
MULLAN PASS    CLEAR     49  37  63 SE5       29.99R
$$


USA.gov is the U.S. government's official web portal to all federal, state and local government web resources and services.